Regional Weather Roundup
Issued by NWS

Home | Current Version | Previous Version | Graphics & Text | Print | Product List | Glossary On
Versions: 1 2 3 4 5 6 7 8 9 10 11 12 13 14 15 16 17 18 19 20 21 22 23 24 25 26 27 28 29 30 31 32 33 34 35 36 37 38 39 40 41 42 43 44 45 46 47 48 49 50
000
ASUS45 KABQ 251001
RWRNM
NEW MEXICO REGIONAL WEATHER ROUNDUP
NATIONAL WEATHER SERVICE ALBUQUERQUE NM
300 AM MST SAT FEB 25 2017

NOTE: "FAIR" MEANS FEW OR NO CLOUDS BELOW 12,000 FEET AGL WITH NO
       SIGNIFICANT WEATHER OR OBSTRUCTIONS TO VISION.

      THIS PRODUCT IS RELEASED AS TWO VERSIONS.  ONE VERSION NEAR
      THE TOP OF THE HOUR CONTAINING PRELIMINARY DATA FROM ALBUQUERQUE
      AND OTHER STATIONS.  A FINAL VERSION WITH ADDITIONAL DATA IS
      ISSUED ABOUT 10 MINUTES AFTER THE HOUR.

NMZ501-503-504-510>518-251100-
NORTHWEST PLATEAU/NORTHCENTRAL MOUNTAINS

CITY           SKY/WX    TMP DP  RH WIND       PRES   REMARKS
FARMINGTON     FAIR      16  10  77 NE7       30.07S WCI   6
LOS ALAMOS     FAIR      22  -1  36 SW7       30.03F WCI  13
SANTA FE       FAIR      22  -1  36 NW5       30.03F WCI  16
TAOS           FAIR      18  -4  38 SW6       30.02F WCI   9
ANGEL FIRE     FAIR      11   3  67 S7        29.97F WCI   1

$$
NMZ402-403-502-505>509-251100-
WESTCENTRAL MOUNTAINS/SOUTHWEST MOUNTAINS

CITY           SKY/WX    TMP DP  RH WIND       PRES   REMARKS
GALLUP         FAIR      17   5  59 CALM      30.07F
GRANTS         FAIR      10   3  74 CALM      30.09S
SILVER CITY    FAIR      30  11  45 N6        30.10S WCI  24

$$
NMZ407-409-411-412-251100-
SOUTHERN DESERTS

CITY           SKY/WX    TMP DP  RH WIND       PRES   REMARKS
DEMING         FAIR      34  13  41 W10       30.09F WCI  26
LAS CRUCES     FAIR      34   6  30 W7        30.07F WCI  28
HOLLOMAN AFB   FAIR      34   9  35 CALM      30.09F
ALAMOGORDO     FAIR      36   5  27 CALM      30.06F
T OR C         FAIR      36  10  34 NW7       30.06F WCI  30

$$
NMZ519>523-251100-
CENTRAL VALLEYS/CENTRAL HIGHLANDS

CITY           SKY/WX    TMP DP  RH WIND       PRES   REMARKS
ALBUQUERQUE    FAIR      30   0  27 CALM      30.08F
DOUBLE EAGLE   FAIR      19   3  48 NW5       30.07F WCI  13
MORIARTY ARPT  FAIR      12  -1  56 CALM      30.06F
CLINES CORNERS FAIR      14   0  53 W13       30.03F WCI   0
BELEN          FAIR      27   0  32 CALM      30.09S
SOCORRO        FAIR      31   8  36 W8        30.08S WCI  24

$$
NMZ524>526-539-540-251100-
SOUTHCENTRAL MOUNTAINS

CITY           SKY/WX    TMP DP  RH WIND       PRES   REMARKS
RUIDOSO        NOT AVBL

$$
NMZ527>531-251100-
NORTHEAST HIGHLANDS/NORTHEAST PLAINS

CITY           SKY/WX    TMP DP  RH WIND       PRES   REMARKS
LAS VEGAS      FAIR      10   6  84 S5        30.01F WCI   2
RATON          FAIR      12   6  77 SW7       30.01F WCI   1
CLAYTON        FAIR      14  11  87 W7        30.07F WCI   4

$$
NMZ532>537-251100-
EASTCENTRAL PLAINS

CITY           SKY/WX    TMP DP  RH WIND       PRES   REMARKS
TUCUMCARI      FAIR      19  11  70 N7        30.10F WCI  10
CANNON AFB     NOT AVBL
CLOVIS AIRPORT FAIR      19  10  68 N3        30.10S

$$
NMZ028-029-538-251100-
SOUTHEAST PLAINS

CITY           SKY/WX    TMP DP  RH WIND       PRES   REMARKS
ROSWELL        FAIR      32   5  32 N7          N/A  WCI  26
ARTESIA        FAIR      32  12  43 S5        30.10S WCI  27
CARLSBAD       FAIR      36  18  48 N6        30.08R WCI  31
HOBBS          FAIR      32  16  51 NE9       30.11S WCI  24


$$



USA.gov is the U.S. government's official web portal to all federal, state and local government web resources and services.